• în România
  • Lista ţărilor
  • Pe 7 zile
  • Temperatura apei
  • Hartă satelitară
  • Meteo pe hartă
  • Widget-uri
  • user-avatar
    Intrare

    Meteo pe oră la Coasta de Aur

    Astăzi, 18 Noiembrie, Sâmbătă

    Timp Temperatura Precipitaţii Vânt Presiune Umiditate
    00:00 +19°C° 0,1 mm 3 m/s 759 mmHg 81%
    01:00 +18°C° 0,1 mm 3 m/s 758 mmHg 83%
    02:00 +18°C° 0,3 mm 3 m/s 758 mmHg 85%
    03:00 +18°C° 0,3 mm 3 m/s 758 mmHg 87%
    04:00 +18°C° 0 mm 4 m/s 758 mmHg 90%
    05:00 +19°C° 0,7 mm 4 m/s 758 mmHg 88%
    06:00 +20°C° 0,7 mm 4 m/s 759 mmHg 86%
    07:00 +21°C° 0,7 mm 4 m/s 759 mmHg 84%
    08:00 +21°C° 0,8 mm 5 m/s 759 mmHg 84%
    09:00 +21°C° 0,8 mm 5 m/s 759 mmHg 84%
    10:00 +22°C° 0,8 mm 5 m/s 759 mmHg 84%
    11:00 +21°C° 1 mm 5 m/s 759 mmHg 85%
    12:00 +21°C° 1 mm 4 m/s 759 mmHg 86%
    13:00 +21°C° 1 mm 4 m/s 758 mmHg 87%
    14:00 +21°C° 0,7 mm 4 m/s 758 mmHg 86%
    15:00 +21°C° 0,7 mm 4 m/s 758 mmHg 84%
    16:00 +21°C° 0,7 mm 4 m/s 758 mmHg 83%
    17:00 +20°C° 0,2 mm 4 m/s 758 mmHg 84%
    18:00 +19°C° 0,2 mm 4 m/s 759 mmHg 85%
    19:00 +19°C° 0,2 mm 3 m/s 759 mmHg 86%
    20:00 +19°C° 0,1 mm 3 m/s 759 mmHg 86%
    21:00 +18°C° 0,1 mm 3 m/s 759 mmHg 87%
    22:00 +18°C° 0,1 mm 3 m/s 759 mmHg 87%
    23:00 +18°C° 0,3 mm 3 m/s 759 mmHg 88%

    Mâine, 19 Noiembrie, Duminică

    Timp Temperatura Precipitaţii Vânt Presiune Umiditate
    00:00 +18°C° 0,3 mm 3 m/s 758 mmHg 89%
    01:00 +17°C° 0,3 mm 3 m/s 758 mmHg 90%
    02:00 +17°C° 0,2 mm 3 m/s 758 mmHg 91%
    03:00 +17°C° 0,2 mm 3 m/s 758 mmHg 91%
    04:00 +17°C° 0,2 mm 4 m/s 758 mmHg 92%
    05:00 +18°C° 0,3 mm 4 m/s 758 mmHg 89%
    06:00 +19°C° 0,3 mm 4 m/s 759 mmHg 87%
    07:00 +20°C° 0,3 mm 4 m/s 759 mmHg 84%
    08:00 +22°C° 0,4 mm 4 m/s 759 mmHg 76%
    09:00 +23°C° 0,4 mm 4 m/s 759 mmHg 69%
    10:00 +25°C° 0,4 mm 5 m/s 759 mmHg 61%
    11:00 +25°C° 0,2 mm 5 m/s 759 mmHg 59%
    12:00 +26°C° 0,2 mm 5 m/s 759 mmHg 56%
    13:00 +27°C° 0,2 mm 5 m/s 759 mmHg 53%
    14:00 +26°C° 0,2 mm 5 m/s 759 mmHg 57%
    15:00 +25°C° 0,2 mm 5 m/s 759 mmHg 62%
    16:00 +23°C° 0,2 mm 5 m/s 758 mmHg 66%
    17:00 +22°C° 0,1 mm 5 m/s 759 mmHg 71%
    18:00 +20°C° 0,1 mm 4 m/s 759 mmHg 75%
    19:00 +19°C° 0,1 mm 4 m/s 760 mmHg 80%
    20:00 +18°C° 0 mm 4 m/s 760 mmHg 81%
    21:00 +18°C° 0 mm 4 m/s 760 mmHg 83%
    22:00 +17°C° 0 mm 4 m/s 760 mmHg 84%
    23:00 +17°C° 0,1 mm 4 m/s 760 mmHg 86%

    Poimâine, 20 Noiembrie, Luni

    Timp Temperatura Precipitaţii Vânt Presiune Umiditate
    00:00 +17°C° 0,1 mm 4 m/s 759 mmHg 88%
    01:00 +17°C° 0,1 mm 4 m/s 759 mmHg 90%
    02:00 +17°C° 0,6 mm 4 m/s 759 mmHg 91%
    03:00 +17°C° 0,6 mm 4 m/s 759 mmHg 92%
    04:00 +17°C° 0,6 mm 4 m/s 759 mmHg 93%
    05:00 +17°C° 0,3 mm 5 m/s 760 mmHg 88%
    06:00 +19°C° 0,3 mm 5 m/s 760 mmHg 84%
    07:00 +20°C° 0,3 mm 6 m/s 761 mmHg 80%
    08:00 +22°C° 0,1 mm 6 m/s 761 mmHg 69%
    09:00 +24°C° 0,1 mm 6 m/s 761 mmHg 59%
    10:00 +26°C° 0,1 mm 6 m/s 761 mmHg 48%
    11:00 +27°C° 0 mm 6 m/s 760 mmHg 46%
    12:00 +28°C° 0 mm 6 m/s 760 mmHg 45%
    13:00 +28°C° 0 mm 6 m/s 759 mmHg 43%
    14:00 +27°C° 0,1 mm 6 m/s 759 mmHg 50%
    15:00 +26°C° 0,1 mm 6 m/s 759 mmHg 56%
    16:00 +24°C° 0,1 mm 6 m/s 759 mmHg 63%
    17:00 +22°C° 0,1 mm 6 m/s 760 mmHg 69%
    18:00 +21°C° 0,1 mm 5 m/s 760 mmHg 76%
    19:00 +19°C° 0,1 mm 5 m/s 761 mmHg 82%
    20:00 +19°C° 0,1 mm 5 m/s 761 mmHg 84%
    21:00 +17°C° 0,1 mm 5 m/s 761 mmHg 87%
    22:00 +17°C° 0,1 mm 5 m/s 761 mmHg 89%
    23:00 +17°C° 0,2 mm 5 m/s 761 mmHg 90%

    21 Noiembrie, Marţi

    Timp Temperatura Precipitaţii Vânt Presiune Umiditate
    00:00 +17°C° 0,2 mm 4 m/s 760 mmHg 91%
    01:00 +17°C° 0,2 mm 4 m/s 760 mmHg 92%
    02:00 +17°C° 0,6 mm 4 m/s 759 mmHg 92%
    03:00 +17°C° 0,6 mm 4 m/s 759 mmHg 92%
    04:00 +17°C° 0,6 mm 4 m/s 759 mmHg 93%
    05:00 +17°C° 0,8 mm 5 m/s 760 mmHg 89%
    06:00 +19°C° 0,8 mm 5 m/s 760 mmHg 85%
    07:00 +20°C° 0,8 mm 5 m/s 760 mmHg 81%
    08:00 +21°C° 0,5 mm 5 m/s 760 mmHg 75%
    09:00 +23°C° 0,5 mm 5 m/s 760 mmHg 70%
    10:00 +25°C° 0,5 mm 5 m/s 760 mmHg 64%
    11:00 +25°C° 0,3 mm 5 m/s 760 mmHg 60%
    12:00 +26°C° 0,3 mm 5 m/s 759 mmHg 55%
    13:00 +27°C° 0,3 mm 6 m/s 759 mmHg 50%
    14:00 +27°C° 0,2 mm 6 m/s 759 mmHg 51%
    15:00 +26°C° 0,2 mm 6 m/s 759 mmHg 52%
    16:00 +26°C° 0,2 mm 6 m/s 758 mmHg 53%
    17:00 +23°C° 0,2 mm 6 m/s 759 mmHg 62%
    18:00 +21°C° 0,2 mm 6 m/s 759 mmHg 71%
    19:00 +20°C° 0,2 mm 5 m/s 759 mmHg 79%
    20:00 +19°C° 0,2 mm 5 m/s 759 mmHg 83%
    21:00 +17°C° 0,2 mm 5 m/s 760 mmHg 87%
    22:00 +17°C° 0,2 mm 5 m/s 760 mmHg 90%
    23:00 +17°C° 0,3 mm 5 m/s 759 mmHg 91%

    22 Noiembrie, Miercuri

    Timp Temperatura Precipitaţii Vânt Presiune Umiditate
    00:00 +17°C° 0,3 mm 5 m/s 758 mmHg 91%
    01:00 +16°C° 0,3 mm 5 m/s 757 mmHg 92%
    02:00 +17°C° 0,4 mm 4 m/s 758 mmHg 92%
    03:00 +17°C° 0,4 mm 4 m/s 758 mmHg 93%
    04:00 +17°C° 0,4 mm 3 m/s 758 mmHg 94%
    05:00 +18°C° 0,3 mm 3 m/s 758 mmHg 91%
    06:00 +18°C° 0,3 mm 4 m/s 759 mmHg 87%
    07:00 +19°C° 0,3 mm 4 m/s 759 mmHg 84%
    08:00 +21°C° 0,2 mm 4 m/s 759 mmHg 76%
    09:00 +22°C° 0,2 mm 4 m/s 758 mmHg 68%
    10:00 +25°C° 0,2 mm 4 m/s 758 mmHg 60%
    11:00 +25°C° 0,4 mm 4 m/s 758 mmHg 62%
    12:00 +25°C° 0,4 mm 4 m/s 758 mmHg 63%
    13:00 +25°C° 0,4 mm 4 m/s 757 mmHg 65%
    14:00 +25°C° 0,3 mm 4 m/s 757 mmHg 67%
    15:00 +25°C° 0,3 mm 4 m/s 757 mmHg 68%
    16:00 +23°C° 0,3 mm 4 m/s 757 mmHg 70%
    17:00 +22°C° 0,2 mm 4 m/s 757 mmHg 75%
    18:00 +21°C° 0,2 mm 4 m/s 758 mmHg 81%
    19:00 +19°C° 0,2 mm 4 m/s 758 mmHg 86%
    20:00 +19°C° 0,1 mm 4 m/s 758 mmHg 88%
    21:00 +18°C° 0,1 mm 3 m/s 758 mmHg 89%
    22:00 +18°C° 0,1 mm 3 m/s 759 mmHg 91%
    23:00 +18°C° 0,1 mm 3 m/s 758 mmHg 92%

    23 Noiembrie, Joi

    Timp Temperatura Precipitaţii Vânt Presiune Umiditate
    00:00 +18°C° 0,1 mm 3 m/s 757 mmHg 92%
    01:00 +17°C° 0,1 mm 3 m/s 757 mmHg 93%
    02:00 +17°C° 0,2 mm 3 m/s 757 mmHg 93%
    03:00 +17°C° 0,2 mm 3 m/s 757 mmHg 94%
    04:00 +17°C° 0,2 mm 3 m/s 757 mmHg 94%
    05:00 +18°C° 0,1 mm 3 m/s 757 mmHg 91%
    06:00 +19°C° 0,1 mm 3 m/s 758 mmHg 87%
    07:00 +20°C° 0,1 mm 3 m/s 758 mmHg 84%
    08:00 +22°C° 0,1 mm 3 m/s 758 mmHg 75%
    09:00 +25°C° 0,1 mm 3 m/s 758 mmHg 67%
    10:00 +27°C° 0,1 mm 3 m/s 758 mmHg 58%
    11:00 +27°C° 0,3 mm 3 m/s 758 mmHg 62%
    12:00 +26°C° 0,3 mm 3 m/s 757 mmHg 65%
    13:00 +26°C° 0,3 mm 3 m/s 757 mmHg 69%
    14:00 +26°C° 0,2 mm 3 m/s 757 mmHg 68%
    15:00 +26°C° 0,2 mm 4 m/s 757 mmHg 66%
    16:00 +26°C° 0,2 mm 4 m/s 757 mmHg 65%
    17:00 +24°C° 0 mm 3 m/s 757 mmHg 70%
    18:00 +22°C° 0 mm 3 m/s 758 mmHg 75%
    19:00 +21°C° 0 mm 3 m/s 758 mmHg 80%
    20:00 +20°C° 0 mm 3 m/s 758 mmHg 81%
    21:00 +20°C° 0 mm 2 m/s 759 mmHg 83%
    22:00 +19°C° 0 mm 2 m/s 759 mmHg 84%
    23:00 +19°C° 0 mm 2 m/s 759 mmHg 85%
    Arată mai mult